Hourly Data Report for July 23, 2021

RANKIN INLET A
NUNAVUT
Current Station Operator: NAVCAN

62°48'38.000" N
92°06'53.000" W
32.30 m
2303405
71083
YRT

Download Data

Hourly Data (July 2021)
Hourly Data Report for July 23, 2021
TIME
LST
Temp Definition
°C
Dew Point Definition
°C
Rel Hum Definition
%
Precip. Amount Definition
mm

Wind Dir Definition
10's deg

Wind Spd Definition
km/h
Visibility Definition
km
Stn Press Definition
kPa
Hmdx Definition


Wind Chill Definition


Weather Definition


00:00 9.1 7.4 89   15 23 16.1 100.25     Rain
01:00 8.2 7.5 95   14 22 16.1 100.15     Rain
02:00 8.4 7.7 95   15 21 16.1 100.05     Rain
03:00 7.8 7.2 96   13 26 6.4 99.91     Thunderstorms, Rain
04:00 8.0 7.6 97   13 29 6.4 99.73     Thunderstorms, Rain
05:00 9.0 8.7 98   17 36 4.8 99.76     Rain
06:00 8.0 7.7 98   13 31 4.8 99.41     Rain
07:00 9.2 8.6 96   14 23 9.7 99.30     Rain, Fog
08:00 9.0 8.1 94   15 24 9.7 99.16     Fog
09:00 8.8 8.2 95   14 27 9.7 99.11     Fog
10:00 8.7 7.6 93   11 21 8.1 99.04     Fog
11:00 8.7 8.2 97   11 12 8.1 98.84     Rain, Fog
12:00 8.8 8.5 98   13 19 2.4 98.83     Fog
13:00 8.4 8.1 98   11 16 0.2 98.72     Fog
14:00 9.1 8.9 99   12 22 0.4 98.61     Fog
15:00 9.0 8.7 98   12 19 3.2 98.53     Fog
16:00 10.0 9.6 98   14 25 0.4 98.42     Drizzle, Fog
17:00 8.4 8.2 98   12 15 0.4 98.35     Fog
18:00 9.6 9.4 99   15 18 0.6 98.27     Fog
19:00 9.4 9.1 99   12 16 4.8 98.20     Fog
20:00 9.1 7.4 90   11 19 4.8 98.12     Fog
21:00 8.7 7.2 91   9 15 8.1 98.07     Fog
22:00 8.2 7.0 92   12 14 8.1 97.98     Fog
23:00 8.4 7.2 92   12 17 8.1 97.89     Fog

Notes on Data Quality.

Legend

  • E = Estimated
  • M = Missing
  • NA = Not Available*
  • [empty] = Indicates an unobserved value
Date modified: